"Sample Date","Sample Time","Sample Value","Units","Flow Rate","Sample Interval","Number Channels","Micron Size 0","Counts/Channel 0","Micron Size 1","Counts/Channel 1","Micron Size 2","Counts/Channel 2","Micron Size 3","Counts/Channel 3","Micron Size 4","Counts/Channel 4","Micron Size 5","Counts/Channel 5","Micron Size 6","Counts/Channel 6","Micron Size 7","Counts/Channel 7","Micron Size 8","Counts/Channel 8","Micron Size 9","Counts/Channel 9","Micron Size 10","Counts/Channel 10","Micron Size 11","Counts/Channel 11","Micron Size 12","Counts/Channel 12","Micron Size 13","Counts/Channel 13","Micron Size 14","Counts/Channel 14","Micron Size 15","Counts/Channel 15","Micron Size 16","Counts/Channel 16","Micron Size 17","Counts/Channel 17","Micron Size 18","Counts/Channel 18","Micron Size 19","Counts/Channel 19","Micron Size 20","Counts/Channel 20","Micron Size 21","Counts/Channel 21","Micron Size 22","Counts/Channel 22","Micron Size 23","Counts/Channel 23","Micron Size 24","Counts/Channel 24","Micron Size 25","Counts/Channel 25","Micron Size 26","Counts/Channel 26","Micron Size 27","Counts/Channel 27","Micron Size 28","Counts/Channel 28","Micron Size 29","Counts/Channel 29","Micron Size 30","Counts/Channel 30","Micron Size 31","Counts/Channel 31"
"04/01/08","05:00:00",11762.000,"cc",28294.547,6.00,6,0.100,8316.000,0.200,1563.000,0.300,825.000,0.500,784.000,1.000,274.000,5.000,0
"04/01/08","05:00:06",11226.000,"cc",28325.533,6.00,6,0.100,8122.000,0.200,1356.000,0.300,724.000,0.500,767.000,1.000,257.000,5.000,0
"04/01/08","05:00:12",11229.000,"cc",28354.990,6.00,6,0.100,8092.000,0.200,1383.000,0.300,708.000,0.500,793.000,1.000,253.000,5.000,0
"04/01/08","05:00:18",11457.000,"cc",28272.445,6.00,6,0.100,8305.000,0.200,1344.000,0.300,769.000,0.500,788.000,1.000,251.000,5.000,0
"04/01/08","05:00:24",11587.000,"cc",28289.168,6.00,6,0.100,8361.000,0.200,1418.000,0.300,762.000,0.500,781.000,1.000,265.000,5.000,0
"04/01/08","05:00:30",11521.000,"cc",28354.096,6.00,6,0.100,8260.000,0.200,1439.000,0.300,738.000,0.500,785.000,1.000,299.000,5.000,0
"04/01/08","05:00:36",11710.000,"cc",28357.391,6.00,6,0.100,8340.000,0.200,1480.000,0.300,734.000,0.500,862.000,1.000,294.000,5.000,0
"04/01/08","05:00:42",11891.000,"cc",28260.938,6.00,6,0.100,8561.000,0.200,1442.000,0.300,776.000,0.500,838.000,1.000,274.000,5.000,0
"04/01/08","05:00:48",11388.000,"cc",28325.234,6.00,6,0.100,8208.000,0.200,1406.000,0.300,721.000,0.500,786.000,1.000,267.000,5.000,0
"04/01/08","05:00:54",11311.000,"cc",28406.307,6.00,6,0.100,8108.000,0.200,1389.000,0.300,733.000,0.500,782.000,1.000,299.000,5.000,0
"04/01/08","05:01:00",11400.000,"cc",28241.117,6.00,6,0.100,8255.000,0.200,1375.000,0.300,696.000,0.500,810.000,1.000,264.000,5.000,0
"04/01/08","05:01:06",11009.000,"cc",28319.205,6.00,6,0.100,7950.000,0.200,1325.000,0.300,710.000,0.500,750.000,1.000,274.000,5.000,0
"04/01/08","05:01:12",11330.000,"cc",28330.846,6.00,6,0.100,8148.000,0.200,1373.000,0.300,728.000,0.500,791.000,1.000,290.000,5.000,0
"04/01/08","05:01:18",11162.000,"cc",28325.857,6.00,6,0.100,8098.000,0.200,1329.000,0.300,743.000,0.500,724.000,1.000,268.000,5.000,0
"04/01/08","05:01:24",11092.000,"cc",28311.988,6.00,6,0.100,7959.000,0.200,1333.000,0.300,743.000,0.500,807.000,1.000,250.000,5.000,0
"04/01/08","05:01:30",11160.000,"cc",28327.100,6.00,6,0.100,8068.000,0.200,1360.000,0.300,729.000,0.500,736.000,1.000,267.000,5.000,0
"04/01/08","05:01:36",11015.000,"cc",28305.756,6.00,6,0.100,7914.000,0.200,1362.000,0.300,751.000,0.500,727.000,1.000,261.000,5.000,0
"04/01/08","05:01:42",10959.000,"cc",28362.576,6.00,6,0.100,7885.000,0.200,1360.000,0.300,718.000,0.500,757.000,1.000,239.000,5.000,0
"04/01/08","05:01:48",11055.000,"cc",28277.195,6.00,6,0.100,8052.000,0.200,1329.000,0.300,742.000,0.500,694.000,1.000,238.000,5.000,0
"04/01/08","05:01:54",11050.000,"cc",28266.375,6.00,6,0.100,7975.000,0.200,1327.000,0.300,723.000,0.500,747.000,1.000,278.000,5.000,0
"04/01/08","05:02:00",11846.000,"cc",28333.842,6.00,6,0.100,8383.000,0.200,1548.000,0.300,805.000,0.500,813.000,1.000,297.000,5.000,0
"04/01/08","05:02:06",11447.000,"cc",28350.125,6.00,6,0.100,8239.000,0.200,1369.000,0.300,760.000,0.500,805.000,1.000,274.000,5.000,0
"04/01/08","05:02:12",11432.000,"cc",28337.422,6.00,6,0.100,8169.000,0.200,1410.000,0.300,733.000,0.500,831.000,1.000,289.000,5.000,0
"04/01/08","05:02:18",11233.000,"cc",28329.154,6.00,6,0.100,7994.000,0.200,1392.000,0.300,743.000,0.500,832.000,1.000,272.000,5.000,0
"04/01/08","05:02:24",11452.000,"cc",28316.508,6.00,6,0.100,8210.000,0.200,1426.000,0.300,785.000,0.500,769.000,1.000,262.000,5.000,0
"04/01/08","05:02:30",11170.000,"cc",28313.301,6.00,6,0.100,7874.000,0.200,1422.000,0.300,793.000,0.500,816.000,1.000,265.000,5.000,0
"04/01/08","05:02:36",11174.000,"cc",28280.215,6.00,6,0.100,8055.000,0.200,1393.000,0.300,685.000,0.500,783.000,1.000,258.000,5.000,0
"04/01/08","05:02:42",11302.000,"cc",28337.051,6.00,6,0.100,8075.000,0.200,1360.000,0.300,763.000,0.500,827.000,1.000,277.000,5.000,0
"04/01/08","05:02:48",11530.000,"cc",28296.611,6.00,6,0.100,8295.000,0.200,1394.000,0.300,760.000,0.500,792.000,1.000,289.000,5.000,0
"04/01/08","05:02:54",11606.000,"cc",28315.938,6.00,6,0.100,8222.000,0.200,1479.000,0.300,761.000,0.500,852.000,1.000,292.000,5.000,0
"04/01/08","05:03:00",11487.000,"cc",28330.836,6.00,6,0.100,8263.000,0.200,1388.000,0.300,746.000,0.500,795.000,1.000,295.000,5.000,0
"04/01/08","05:03:06",11491.000,"cc",28317.742,6.00,6,0.100,8159.000,0.200,1422.000,0.300,763.000,0.500,849.000,1.000,298.000,5.000,0
"04/01/08","05:03:12",11577.000,"cc",28325.430,6.00,6,0.100,8284.000,0.200,1398.000,0.300,798.000,0.500,809.000,1.000,288.000,5.000,0
"04/01/08","05:03:18",11553.000,"cc",28305.430,6.00,6,0.100,8304.000,0.200,1368.000,0.300,787.000,0.500,834.000,1.000,260.000,5.000,0
"04/01/08","05:03:24",11670.000,"cc",28333.754,6.00,6,0.100,8405.000,0.200,1398.000,0.300,785.000,0.500,824.000,1.000,258.000,5.000,0
"04/01/08","05:03:30",11639.000,"cc",28366.641,6.00,6,0.100,8378.000,0.200,1365.000,0.300,773.000,0.500,824.000,1.000,299.000,5.000,0
"04/01/08","05:03:36",11798.000,"cc",28299.148,6.00,6,0.100,8495.000,0.200,1373.000,0.300,823.000,0.500,847.000,1.000,260.000,5.000,0
"04/01/08","05:03:42",11791.000,"cc",28309.119,6.00,6,0.100,8451.000,0.200,1479.000,0.300,749.000,0.500,823.000,1.000,289.000,5.000,0
"04/01/08","05:03:48",11481.000,"cc",28293.955,6.00,6,0.100,8314.000,0.200,1351.000,0.300,741.000,0.500,803.000,1.000,272.000,5.000,0
"04/01/08","05:03:54",12653.000,"cc",28317.783,6.00,6,0.100,8832.000,0.200,1613.000,0.300,907.000,0.500,990.000,1.000,311.000,5.000,0
"04/01/08","05:04:00",11684.000,"cc",28328.180,6.00,6,0.100,8290.000,0.200,1467.000,0.300,754.000,0.500,862.000,1.000,311.000,5.000,0
"04/01/08","05:04:06",11730.000,"cc",28319.850,6.00,6,0.100,8305.000,0.200,1449.000,0.300,786.000,0.500,872.000,1.000,318.000,5.000,0
"04/01/08","05:04:12",12700.000,"cc",28252.764,6.00,6,0.100,8910.000,0.200,1586.000,0.300,921.000,0.500,938.000,1.000,345.000,5.000,0
"04/01/08","05:04:18",12554.000,"cc",28264.832,6.00,6,0.100,8686.000,0.200,1662.000,0.300,930.000,0.500,971.000,1.000,305.000,5.000,0
"04/01/08","05:04:24",12645.000,"cc",28381.957,6.00,6,0.100,8825.000,0.200,1655.000,0.300,932.000,0.500,906.000,1.000,327.000,5.000,0
"04/01/08","05:04:30",13485.000,"cc",28349.717,6.00,6,0.100,9428.000,0.200,1685.000,0.300,1021.000,0.500,1018.000,1.000,333.000,5.000,0
"04/01/08","05:04:36",13512.000,"cc",28341.172,6.00,6,0.100,9106.000,0.200,1866.000,0.300,1046.000,0.500,1109.000,1.000,385.000,5.000,0
"04/01/08","05:04:42",12386.000,"cc",28318.133,6.00,6,0.100,8756.000,0.200,1594.000,0.300,830.000,0.500,887.000,1.000,319.000,5.000,0
"04/01/08","05:04:48",11801.000,"cc",28304.510,6.00,6,0.100,8354.000,0.200,1512.000,0.300,811.000,0.500,822.000,1.000,302.000,5.000,0
"04/01/08","05:04:54",12283.000,"cc",28314.330,6.00,6,0.100,8800.000,0.200,1529.000,0.300,812.000,0.500,851.000,1.000,291.000,5.000,0
"04/01/08","05:05:00",12806.000,"cc",28365.127,6.00,6,0.100,8977.000,0.200,1617.000,0.300,909.000,0.500,952.000,1.000,351.000,5.000,0
"04/01/08","05:05:06",13985.000,"cc",28311.539,6.00,6,0.100,9284.000,0.200,1956.000,0.300,1176.000,0.500,1162.000,1.000,407.000,5.000,0
"04/01/08","05:05:12",13627.000,"cc",28340.815,6.00,6,0.100,9230.000,0.200,1894.000,0.300,1022.000,0.500,1083.000,1.000,398.000,5.000,0
"04/01/08","05:05:18",12558.000,"cc",28269.010,6.00,6,0.100,8926.000,0.200,1550.000,0.300,865.000,0.500,903.000,1.000,314.000,5.000,0
"04/01/08","05:05:24",12332.000,"cc",28273.531,6.00,6,0.100,8745.000,0.200,1517.000,0.300,902.000,0.500,840.000,1.000,328.000,5.000,0
"04/01/08","05:05:30",12490.000,"cc",28374.469,6.00,6,0.100,8593.000,0.200,1627.000,0.300,931.000,0.500,998.000,1.000,341.000,5.000,0
"04/01/08","05:05:36",12205.000,"cc",28364.703,6.00,6,0.100,8699.000,0.200,1551.000,0.300,823.000,0.500,858.000,1.000,274.000,5.000,0
"04/01/08","05:05:42",12145.000,"cc",28242.400,6.00,6,0.100,8594.000,0.200,1570.000,0.300,820.000,0.500,831.000,1.000,330.000,5.000,0
"04/01/08","05:05:48",12206.000,"cc",28332.256,6.00,6,0.100,8621.000,0.200,1544.000,0.300,853.000,0.500,866.000,1.000,322.000,5.000,0
"04/01/08","05:05:54",12155.000,"cc",28292.275,6.00,6,0.100,8521.000,0.200,1538.000,0.300,918.000,0.500,894.000,1.000,284.000,5.000,0
"04/01/08","05:06:00",12084.000,"cc",28311.225,6.00,6,0.100,8505.000,0.200,1526.000,0.300,865.000,0.500,885.000,1.000,303.000,5.000,0
"04/01/08","05:06:06",12069.000,"cc",28307.836,6.00,6,0.100,8510.000,0.200,1548.000,0.300,903.000,0.500,830.000,1.000,278.000,5.000,0
"04/01/08","05:06:12",13749.000,"cc",28279.307,6.00,6,0.100,9552.000,0.200,1864.000,0.300,1023.000,0.500,953.000,1.000,357.000,5.000,0
"04/01/08","05:06:18",14426.000,"cc",28347.166,6.00,6,0.100,9746.000,0.200,2070.000,0.300,1155.000,0.500,1117.000,1.000,338.000,5.000,0
"04/01/08","05:06:24",12845.000,"cc",28335.047,6.00,6,0.100,8988.000,0.200,1692.000,0.300,905.000,0.500,956.000,1.000,304.000,5.000,0
"04/01/08","05:06:30",13605.000,"cc",28314.732,6.00,6,0.100,9197.000,0.200,1921.000,0.300,1065.000,0.500,1052.000,1.000,370.000,5.000,0
"04/01/08","05:06:36",13237.000,"cc",28324.518,6.00,6,0.100,9167.000,0.200,1738.000,0.300,1018.000,0.500,955.000,1.000,359.000,5.000,0
"04/01/08","05:06:42",13380.000,"cc",28340.635,6.00,6,0.100,9249.000,0.200,1749.000,0.300,1011.000,0.500,1034.000,1.000,337.000,5.000,0
"04/01/08","05:06:48",12979.000,"cc",28274.385,6.00,6,0.100,9086.000,0.200,1714.000,0.300,933.000,0.500,925.000,1.000,321.000,5.000,0
"04/01/08","05:06:54",12043.000,"cc",28295.463,6.00,6,0.100,8603.000,0.200,1494.000,0.300,764.000,0.500,889.000,1.000,293.000,5.000,0
"04/01/08","05:07:00",11672.000,"cc",28306.191,6.00,6,0.100,8356.000,0.200,1397.000,0.300,782.000,0.500,837.000,1.000,300.000,5.000,0
"04/01/08","05:07:06",11788.000,"cc",28344.824,6.00,6,0.100,8414.000,0.200,1507.000,0.300,760.000,0.500,825.000,1.000,282.000,5.000,0
"04/01/08","05:07:12",11923.000,"cc",28379.244,6.00,6,0.100,8464.000,0.200,1531.000,0.300,847.000,0.500,789.000,1.000,292.000,5.000,0
"04/01/08","05:07:18",12336.000,"cc",28291.434,6.00,6,0.100,8664.000,0.200,1521.000,0.300,907.000,0.500,923.000,1.000,321.000,5.000,0
"04/01/08","05:07:24",12245.000,"cc",28275.740,6.00,6,0.100,8685.000,0.200,1532.000,0.300,825.000,0.500,881.000,1.000,322.000,5.000,0
"04/01/08","05:07:30",12096.000,"cc",28313.123,6.00,6,0.100,8625.000,0.200,1468.000,0.300,831.000,0.500,865.000,1.000,307.000,5.000,0
"04/01/08","05:07:36",12004.000,"cc",28295.250,6.00,6,0.100,8454.000,0.200,1487.000,0.300,869.000,0.500,893.000,1.000,301.000,5.000,0
"04/01/08","05:07:42",11578.000,"cc",28277.494,6.00,6,0.100,8329.000,0.200,1443.000,0.300,754.000,0.500,780.000,1.000,272.000,5.000,0
"04/01/08","05:07:48",11963.000,"cc",28341.846,6.00,6,0.100,8532.000,0.200,1541.000,0.300,813.000,0.500,812.000,1.000,265.000,5.000,0
"04/01/08","05:07:54",11992.000,"cc",28361.910,6.00,6,0.100,8443.000,0.200,1557.000,0.300,814.000,0.500,860.000,1.000,318.000,5.000,0
"04/01/08","05:08:00",11988.000,"cc",28350.094,6.00,6,0.100,8439.000,0.200,1541.000,0.300,832.000,0.500,865.000,1.000,311.000,5.000,0
"04/01/08","05:08:06",11713.000,"cc",28338.617,6.00,6,0.100,8389.000,0.200,1411.000,0.300,753.000,0.500,862.000,1.000,298.000,5.000,0
"04/01/08","05:08:12",12074.000,"cc",28293.658,6.00,6,0.100,8528.000,0.200,1554.000,0.300,842.000,0.500,863.000,1.000,287.000,5.000,0
"04/01/08","05:08:18",12608.000,"cc",28322.807,6.00,6,0.100,8825.000,0.200,1618.000,0.300,894.000,0.500,964.000,1.000,307.000,5.000,0
"04/01/08","05:08:24",12639.000,"cc",28292.315,6.00,6,0.100,8834.000,0.200,1672.000,0.300,937.000,0.500,883.000,1.000,313.000,5.000,0
"04/01/08","05:08:30",12629.000,"cc",28325.457,6.00,6,0.100,8788.000,0.200,1661.000,0.300,929.000,0.500,917.000,1.000,334.000,5.000,0
"04/01/08","05:08:36",11525.000,"cc",28330.600,6.00,6,0.100,8238.000,0.200,1416.000,0.300,760.000,0.500,831.000,1.000,280.000,5.000,0
"04/01/08","05:08:42",11791.000,"cc",28266.092,6.00,6,0.100,8433.000,0.200,1477.000,0.300,793.000,0.500,807.000,1.000,281.000,5.000,0
"04/01/08","05:08:48",11863.000,"cc",28335.547,6.00,6,0.100,8421.000,0.200,1430.000,0.300,839.000,0.500,887.000,1.000,286.000,5.000,0
"04/01/08","05:08:54",11668.000,"cc",28337.500,6.00,6,0.100,8390.000,0.200,1418.000,0.300,812.000,0.500,781.000,1.000,267.000,5.000,0
"04/01/08","05:09:00",11530.000,"cc",28282.418,6.00,6,0.100,8296.000,0.200,1420.000,0.300,750.000,0.500,771.000,1.000,293.000,5.000,0
"04/01/08","05:09:06",11163.000,"cc",28343.301,6.00,6,0.100,8021.000,0.200,1374.000,0.300,712.000,0.500,779.000,1.000,277.000,5.000,0
"04/01/08","05:09:12",11687.000,"cc",28317.705,6.00,6,0.100,8300.000,0.200,1431.000,0.300,801.000,0.500,864.000,1.000,291.000,5.000,0
"04/01/08","05:09:18",11327.000,"cc",28299.531,6.00,6,0.100,8192.000,0.200,1371.000,0.300,720.000,0.500,769.000,1.000,275.000,5.000,0
"04/01/08","05:09:24",11432.000,"cc",28294.672,6.00,6,0.100,8247.000,0.200,1377.000,0.300,744.000,0.500,795.000,1.000,269.000,5.000,0
"04/01/08","05:09:30",11341.000,"cc",28339.428,6.00,6,0.100,8079.000,0.200,1379.000,0.300,798.000,0.500,815.000,1.000,270.000,5.000,0
"04/01/08","05:09:36",11224.000,"cc",28336.576,6.00,6,0.100,8112.000,0.200,1398.000,0.300,695.000,0.500,772.000,1.000,247.000,5.000,0
"04/01/08","05:09:42",11288.000,"cc",28278.299,6.00,6,0.100,8153.000,0.200,1328.000,0.300,773.000,0.500,747.000,1.000,287.000,5.000,0
"04/01/08","05:09:48",11558.000,"cc",28351.211,6.00,6,0.100,8274.000,0.200,1456.000,0.300,754.000,0.500,801.000,1.000,273.000,5.000,0
"04/01/08","05:09:54",11417.000,"cc",28258.813,6.00,6,0.100,8224.000,0.200,1358.000,0.300,793.000,0.500,798.000,1.000,244.000,5.000,0
"04/01/08","05:10:00",11416.000,"cc",28345.844,6.00,6,0.100,8249.000,0.200,1372.000,0.300,754.000,0.500,803.000,1.000,238.000,5.000,0
"04/01/08","05:10:06",11335.000,"cc",28303.219,6.00,6,0.100,8057.000,0.200,1421.000,0.300,732.000,0.500,839.000,1.000,286.000,5.000,0
"04/01/08","05:10:12",11420.000,"cc",28358.492,6.00,6,0.100,8190.000,0.200,1426.000,0.300,743.000,0.500,767.000,1.000,294.000,5.000,0
"04/01/08","05:10:18",11478.000,"cc",28336.830,6.00,6,0.100,8195.000,0.200,1445.000,0.300,776.000,0.500,782.000,1.000,279.000,5.000,1.000
"04/01/08","05:10:24",11406.000,"cc",28269.775,6.00,6,0.100,8209.000,0.200,1340.000,0.300,742.000,0.500,834.000,1.000,281.000,5.000,0
"04/01/08","05:10:30",11354.000,"cc",28317.244,6.00,6,0.100,8237.000,0.200,1341.000,0.300,686.000,0.500,802.000,1.000,288.000,5.000,0
"04/01/08","05:10:36",11078.000,"cc",28336.029,6.00,6,0.100,8078.000,0.200,1336.000,0.300,674.000,0.500,728.000,1.000,262.000,5.000,0
"04/01/08","05:10:42",11404.000,"cc",28276.229,6.00,6,0.100,8227.000,0.200,1355.000,0.300,740.000,0.500,792.000,1.000,290.000,5.000,0
"04/01/08","05:10:48",11034.000,"cc",28300.752,6.00,6,0.100,7984.000,0.200,1310.000,0.300,693.000,0.500,791.000,1.000,256.000,5.000,0
"04/01/08","05:10:54",11211.000,"cc",28308.541,6.00,6,0.100,8137.000,0.200,1364.000,0.300,702.000,0.500,745.000,1.000,263.000,5.000,0
"04/01/08","05:11:00",11386.000,"cc",28352.553,6.00,6,0.100,8223.000,0.200,1388.000,0.300,743.000,0.500,791.000,1.000,241.000,5.000,0
"04/01/08","05:11:06",11483.000,"cc",28292.012,6.00,6,0.100,8196.000,0.200,1448.000,0.300,788.000,0.500,788.000,1.000,263.000,5.000,0
"04/01/08","05:11:12",12690.000,"cc",28303.143,6.00,6,0.100,8851.000,0.200,1687.000,0.300,919.000,0.500,939.000,1.000,294.000,5.000,0
"04/01/08","05:11:18",11990.000,"cc",28384.998,6.00,6,0.100,8420.000,0.200,1455.000,0.300,888.000,0.500,914.000,1.000,313.000,5.000,0
"04/01/08","05:11:24",11810.000,"cc",28300.772,6.00,6,0.100,8478.000,0.200,1450.000,0.300,814.000,0.500,820.000,1.000,248.000,5.000,0
"04/01/08","05:11:30",11739.000,"cc",28329.395,6.00,6,0.100,8333.000,0.200,1458.000,0.300,808.000,0.500,846.000,1.000,294.000,5.000,0
"04/01/08","05:11:36",11443.000,"cc",28305.682,6.00,6,0.100,8258.000,0.200,1422.000,0.300,755.000,0.500,782.000,1.000,226.000,5.000,0
"04/01/08","05:11:42",11886.000,"cc",28325.893,6.00,6,0.100,8480.000,0.200,1433.000,0.300,805.000,0.500,864.000,1.000,304.000,5.000,0
"04/01/08","05:11:48",11746.000,"cc",28353.201,6.00,6,0.100,8370.000,0.200,1468.000,0.300,766.000,0.500,855.000,1.000,287.000,5.000,0
"04/01/08","05:11:54",11690.000,"cc",28299.981,6.00,6,0.100,8403.000,0.200,1445.000,0.300,735.000,0.500,814.000,1.000,293.000,5.000,0
"04/01/08","05:12:00",11523.000,"cc",28272.594,6.00,6,0.100,8346.000,0.200,1367.000,0.300,755.000,0.500,772.000,1.000,283.000,5.000,0
"04/01/08","05:12:06",11545.000,"cc",28377.246,6.00,6,0.100,8256.000,0.200,1465.000,0.300,734.000,0.500,825.000,1.000,265.000,5.000,0
"04/01/08","05:12:12",11670.000,"cc",28299.877,6.00,6,0.100,8391.000,0.200,1418.000,0.300,762.000,0.500,829.000,1.000,270.000,5.000,0
"04/01/08","05:12:18",11538.000,"cc",28287.223,6.00,6,0.100,8471.000,0.200,1339.000,0.300,702.000,0.500,741.000,1.000,285.000,5.000,0
"04/01/08","05:12:24",12473.000,"cc",28288.338,6.00,6,0.100,8721.000,0.200,1647.000,0.300,881.000,0.500,948.000,1.000,276.000,5.000,0
"04/01/08","05:12:30",11500.000,"cc",28333.707,6.00,6,0.100,8283.000,0.200,1376.000,0.300,734.000,0.500,830.000,1.000,277.000,5.000,0
"04/01/08","05:12:36",11522.000,"cc",28330.293,6.00,6,0.100,8204.000,0.200,1433.000,0.300,775.000,0.500,868.000,1.000,242.000,5.000,0
"04/01/08","05:12:42",11357.000,"cc",28340.361,6.00,6,0.100,8115.000,0.200,1361.000,0.300,808.000,0.500,803.000,1.000,270.000,5.000,0
"04/01/08","05:12:48",11440.000,"cc",28261.453,6.00,6,0.100,8307.000,0.200,1376.000,0.300,687.000,0.500,800.000,1.000,270.000,5.000,0
"04/01/08","05:12:54",11364.000,"cc",28333.563,6.00,6,0.100,8242.000,0.200,1312.000,0.300,761.000,0.500,774.000,1.000,275.000,5.000,0
"04/01/08","05:13:00",11505.000,"cc",28355.992,6.00,6,0.100,8276.000,0.200,1410.000,0.300,746.000,0.500,777.000,1.000,296.000,5.000,0
"04/01/08","05:13:06",11786.000,"cc",28271.180,6.00,6,0.100,8313.000,0.200,1421.000,0.300,882.000,0.500,849.000,1.000,321.000,5.000,0
"04/01/08","05:13:12",11592.000,"cc",28413.457,6.00,6,0.100,8330.000,0.200,1364.000,0.300,790.000,0.500,841.000,1.000,267.000,5.000,0
"04/01/08","05:13:18",12135.000,"cc",28349.440,6.00,6,0.100,8628.000,0.200,1555.000,0.300,793.000,0.500,877.000,1.000,282.000,5.000,0
"04/01/08","05:13:24",11482.000,"cc",28307.719,6.00,6,0.100,8191.000,0.200,1343.000,0.300,841.000,0.500,820.000,1.000,287.000,5.000,0
"04/01/08","05:13:30",11498.000,"cc",28270.053,6.00,6,0.100,8195.000,0.200,1373.000,0.300,789.000,0.500,844.000,1.000,297.000,5.000,0
"04/01/08","05:13:36",11456.000,"cc",28293.443,6.00,6,0.100,8262.000,0.200,1381.000,0.300,769.000,0.500,789.000,1.000,255.000,5.000,0
"04/01/08","05:13:42",12407.000,"cc",28296.234,6.00,6,0.100,8814.000,0.200,1557.000,0.300,871.000,0.500,868.000,1.000,297.000,5.000,0
"04/01/08","05:13:48",12128.000,"cc",28332.510,6.00,6,0.100,8584.000,0.200,1559.000,0.300,843.000,0.500,857.000,1.000,285.000,5.000,0
"04/01/08","05:13:54",11341.000,"cc",28269.131,6.00,6,0.100,8150.000,0.200,1387.000,0.300,776.000,0.500,769.000,1.000,259.000,5.000,0
"04/01/08","05:14:00",11594.000,"cc",28400.301,6.00,6,0.100,8356.000,0.200,1385.000,0.300,748.000,0.500,828.000,1.000,277.000,5.000,0
"04/01/08","05:14:06",11997.000,"cc",28350.289,6.00,6,0.100,8495.000,0.200,1491.000,0.300,851.000,0.500,906.000,1.000,254.000,5.000,0
"04/01/08","05:14:12",11379.000,"cc",28301.615,6.00,6,0.100,8095.000,0.200,1398.000,0.300,785.000,0.500,803.000,1.000,298.000,5.000,0
"04/01/08","05:14:18",12571.000,"cc",28300.990,6.00,6,0.100,8875.000,0.200,1619.000,0.300,921.000,0.500,850.000,1.000,306.000,5.000,0
"04/01/08","05:14:24",12419.000,"cc",28262.412,6.00,6,0.100,8829.000,0.200,1571.000,0.300,847.000,0.500,874.000,1.000,298.000,5.000,0
"04/01/08","05:14:30",11947.000,"cc",28333.734,6.00,6,0.100,8446.000,0.200,1557.000,0.300,819.000,0.500,849.000,1.000,276.000,5.000,0
"04/01/08","05:14:36",12250.000,"cc",28376.055,6.00,6,0.100,8634.000,0.200,1518.000,0.300,896.000,0.500,875.000,1.000,327.000,5.000,0
"04/01/08","05:14:42",11871.000,"cc",28315.190,6.00,6,0.100,8472.000,0.200,1493.000,0.300,785.000,0.500,836.000,1.000,285.000,5.000,0
"04/01/08","05:14:48",11277.000,"cc",28318.016,6.00,6,0.100,8040.000,0.200,1396.000,0.300,760.000,0.500,800.000,1.000,281.000,5.000,0
"04/01/08","05:14:54",11968.000,"cc",28302.117,6.00,6,0.100,8450.000,0.200,1519.000,0.300,808.000,0.500,866.000,1.000,325.000,5.000,0
"04/01/08","05:15:00",12008.000,"cc",28297.174,6.00,6,0.100,8570.000,0.200,1516.000,0.300,778.000,0.500,848.000,1.000,296.000,5.000,0
"04/01/08","05:15:06",12003.000,"cc",28253.834,6.00,6,0.100,8546.000,0.200,1519.000,0.300,820.000,0.500,818.000,1.000,300.000,5.000,0
"04/01/08","05:15:12",11987.000,"cc",28307.754,6.00,6,0.100,8542.000,0.200,1472.000,0.300,856.000,0.500,831.000,1.000,286.000,5.000,0
"04/01/08","05:15:18",11778.000,"cc",28371.406,6.00,6,0.100,8506.000,0.200,1483.000,0.300,733.000,0.500,795.000,1.000,261.000,5.000,0
"04/01/08","05:15:24",12139.000,"cc",28347.010,6.00,6,0.100,8605.000,0.200,1500.000,0.300,883.000,0.500,836.000,1.000,315.000,5.000,0
"04/01/08","05:15:30",11731.000,"cc",28325.258,6.00,6,0.100,8393.000,0.200,1411.000,0.300,787.000,0.500,835.000,1.000,305.000,5.000,0
"04/01/08","05:15:36",11614.000,"cc",28324.100,6.00,6,0.100,8449.000,0.200,1358.000,0.300,770.000,0.500,763.000,1.000,274.000,5.000,0
"04/01/08","05:15:42",12188.000,"cc",28325.789,6.00,6,0.100,8565.000,0.200,1598.000,0.300,878.000,0.500,859.000,1.000,288.000,5.000,0
"04/01/08","05:15:48",12907.000,"cc",28290.043,6.00,6,0.100,9106.000,0.200,1609.000,0.300,898.000,0.500,988.000,1.000,306.000,5.000,0
"04/01/08","05:15:54",12472.000,"cc",28300.508,6.00,6,0.100,8650.000,0.200,1645.000,0.300,904.000,0.500,956.000,1.000,317.000,5.000,0
"04/01/08","05:16:00",12313.000,"cc",28298.775,6.00,6,0.100,8845.000,0.200,1506.000,0.300,837.000,0.500,839.000,1.000,286.000,5.000,0
"04/01/08","05:16:06",11850.000,"cc",28322.123,6.00,6,0.100,8577.000,0.200,1402.000,0.300,750.000,0.500,831.000,1.000,290.000,5.000,0
"04/01/08","05:16:12",12269.000,"cc",28269.951,6.00,6,0.100,8633.000,0.200,1558.000,0.300,859.000,0.500,910.000,1.000,309.000,5.000,0
"04/01/08","05:16:18",12170.000,"cc",28344.441,6.00,6,0.100,8640.000,0.200,1514.000,0.300,791.000,0.500,908.000,1.000,317.000,5.000,0
"04/01/08","05:16:24",12229.000,"cc",28356.465,6.00,6,0.100,8690.000,0.200,1517.000,0.300,850.000,0.500,851.000,1.000,321.000,5.000,0
"04/01/08","05:16:30",11867.000,"cc",28282.926,6.00,6,0.100,8537.000,0.200,1395.000,0.300,808.000,0.500,814.000,1.000,313.000,5.000,0
"04/01/08","05:16:36",12019.000,"cc",28337.484,6.00,6,0.100,8599.000,0.200,1486.000,0.300,788.000,0.500,847.000,1.000,299.000,5.000,0
"04/01/08","05:16:42",12122.000,"cc",28276.940,6.00,6,0.100,8658.000,0.200,1489.000,0.300,834.000,0.500,845.000,1.000,295.000,5.000,1.000